Location: Cran-Gévrier
(45.9039°N, 6.1012°E)
Time: 11:30:49
(UTC+00:00)

Lacrosse 4 Rocket - Pass Details

Date: 09 February 2023
Orbit: 536 x 607 km, 68.0° (Epoch: 31 March)

Event Time Altitude Azimuth Distance (km) Brightness Sun altitude
Rises 19:29:44 0° 332° (NNW) 2,832 5.4 -27.7°
Reaches altitude 10° 19:32:03 10° 337° (NNW) 1,914 4.4 -28.1°
Enters shadow 19:33:26 19° 344° (NNW) 1,395 3.6 -28.4°
